Location: Pedholt
(56.0260°N, 10.2097°E)
Time: 06:21:15
(UTC+00:00)

Cosmos 1943 - Pass Details

Date: 14 July 2020
Orbit: 835 x 848 km, 71.0° (Epoch: 14 August)

Event Time Altitude Azimuth Distance (km) Brightness Sun altitude
Exits shadow 00:19:33 - 239° (WSW) 3,032 5.7 -11.5°
Reaches altitude 10° 00:21:06 10° 243° (WSW) 2,466 5.3 -11.4°
Maximum altitude 00:26:32 46° 317° (NW) 1,128 4.1 -11.3°
Drops below altitude 10° 00:31:59 10° 30° (NNE) 2,468 7.0 -11.1°
Sets 00:34:32 0° 37° (NE) 3,403 7.8 -11.0°
